Regional Weather Roundup
Issued by NWS

Home | Current Version | Previous Version | Graphics & Text | Print | Product List | Glossary On
Versions: 1 2 3 4 5 6 7 8 9 10 11 12 13 14 15 16 17 18 19 20 21 22 23 24 25 26 27 28 29 30 31 32 33 34 35 36 37 38 39 40 41 42 43 44 45 46 47 48 49 50
000
ASUS44 KMEG 072200
RWRTN
TENNESSEE HOURLY STATE WEATHER ROUNDUP
NATIONAL WEATHER SERVICE MEMPHIS TN
500 PM CDT TUE JUL 07 2015

TNZ002-004-019-021-049-052-054-088>092-072300-
WEST TENNESSEE

CITY           SKY/WX    TMP DP  RH WIND       PRES   REMARKS
MEMPHIS INTL   PTSUNNY   89  73  59 SW14G23   30.00F HX  97
NWS MEMPHIS      N/A     89 N/A N/A MISG        N/A
JACKSON        PTSUNNY   84  76  76 S6        30.00F HX  93
DYERSBURG        N/A    N/A N/A N/A MISG        N/A
PARIS          MOSUNNY   81  73  78 SW10      30.00F
LEXINGTON      SUNNY     84  72  65 SW10      30.01F
$$

TNZ008-025-027-028-033-062-065-066-072300-
NORTH MIDDLE TENNESSEE

CITY           SKY/WX    TMP DP  RH WIND       PRES   REMARKS
NASHVILLE      PTSUNNY   87  72  60 SW8G18    30.03F HX  93
CLARKSVILLE    CLOUDY    81  74  79 S10       30.00S
COOKEVILLE     SUNNY     90  73  58 SW13      30.06F HX  98
CROSSVILLE     PTSUNNY   82  66  58 SW7       30.13F
$$

TNZ061-075-076-078-094-096-097-072300-
SOUTH MIDDLE TENNESSEE

CITY           SKY/WX    TMP DP  RH WIND       PRES   REMARKS
FAYETTEVILLE   SUNNY     86  70  58 SW10      30.08F HX  90
TULLAHOMA      SUNNY     86  70  58 SW10      30.09F HX  90
WINCHESTER     SUNNY     88  72  58 SW8       30.09S HX  94
COLUMBIA       SUNNY     90  73  58 SW15      30.03F HX  98
SHELBYVILLE    MOSUNNY   88  73  62 SW9         N/A  HX  96
$$

TNZ017-018-042-046-047-072300-
NORTHEAST TENNESSEE

CITY           SKY/WX    TMP DP  RH WIND       PRES   REMARKS
TRI CITIES     PTSUNNY   86  65  49 SW15      30.11S
ELIZABETHTON   CLEAR     84  64  51 W7        30.11F
$$

TNZ012-013-036-069-073-074-072300-
CENTRAL EAST TENNESSEE

CITY           SKY/WX    TMP DP  RH WIND       PRES   REMARKS
KNOXVILLE      PTSUNNY   88  68  51 SW15      30.07F HX  91
OAK RIDGE      MOSUNNY   89  69  51 VRB5      30.08F HX  93
GATLINBURG       N/A     88  63  42 W12       30.08S
$$

TNZ083-085-099-072300-
SOUTHEAST TENNESSEE

CITY           SKY/WX    TMP DP  RH WIND       PRES   REMARKS
CHATTANOOGA    MOSUNNY   90  66  45 SW9       30.08F HX  92
$$

SKY/WX REPORTED AS FAIR MEANS FEW OR NO CLOUDS BELOW
12 THOUSAND FEET.



USA.gov is the U.S. government's official web portal to all federal, state and local government web resources and services.